WA1PB Weather Reports


time (UTC)temp
F
wind
direction
speed
knots
gust
knots
rain 1hr
in
rain 24hr
in
rain mn
in
humidity
%
barometer
mb
20260504081035 38 0.0 0.0 0.00 0.00 0.00 89
20260504080135 37 315 0.0 1.7 0.00 0.00 0.00 88
20260504045035 34 158 0.0 1.7 0.00 0.00 0.00 83
20260504044034 34 0.0 0.0 0.00 0.00 0.00 83
20260504043035 34 113 0.9 1.7 0.00 0.00 0.00 85
20260504042055 34 0.0 0.0 0.00 0.00 0.00 86
20260504041035 34 0.0 0.0 0.00 0.00 0.00 86
20260504040035 33 113 0.0 1.7 0.00 0.00 0.00 86
20260504035035 33 0.0 0.0 0.00 0.00 0.00 87
20260504034035 33 0.0 0.0 0.00 0.00 0.00 89
20260504033035 33 0.0 0.0 0.00 0.00 0.00 88
20260504032035 33 135 0.0 1.7 0.00 0.00 0.00 87
20260504031035 33 0.0 0.0 0.00 0.00 0.00 85
20260504030056 33 293 0.9 1.7 0.00 0.00 0.00 86
20260504025035 34 135 0.0 0.9 0.00 0.00 0.00 84
20260504024055 34 135 0.9 1.7 0.00 0.00 0.00 83
20260504023055 34 0.0 0.0 0.00 0.00 0.00 81
20260504022035 35 113 0.0 0.9 0.00 0.00 0.00 80
20260504021035 35 113 0.0 1.7 0.00 0.00 0.00 78
20260504020035 36 113 0.9 1.7 0.00 0.00 0.00 77
20260504015035 37 0.0 0.0 0.00 0.00 0.00 73
20260504014035 37 0.0 0.0 0.00 0.00 0.00 73
20260504013035 38 0.0 0.9 0.00 0.00 0.00 72
20260504012055 38 113 0.0 1.7 0.00 0.00 0.00 70
20260504011035 40 0.0 0.0 0.00 0.00 0.00 66
20260504010035 40 113 0.0 0.9 0.00 0.00 0.00 66
20260504005035 41 0.0 0.0 0.00 0.00 0.00 63
20260504004035 42 0.0 0.0 0.00 0.00 0.00 59
20260504003035 43 113 0.9 1.7 0.00 0.00 0.00 58
20260504002035 44 0.0 0.0 0.00 0.00 0.00 56
20260504001035 45 113 0.0 1.7 0.00 0.00 0.00 52
20260504000035 45 0.0 0.0 0.00 0.00 0.00 50
20260503235035 47 0.0 0.0 0.00 0.00 0.00 47
20260503234035 48 332 0.9 2.6 0.00 0.00 0.00 45
20260503233055 48 0.0 0.0 0.00 0.00 0.00 45
20260503232035 48 275 0.9 2.6 0.00 0.00 0.00 43
20260503231035 48 318 0.9 1.7 0.00 0.00 0.00 46
20260503230035 49 311 1.7 5.2 0.00 0.00 0.00 43
20260503225035 49 2 2.6 4.3 0.00 0.00 0.00 42
20260503224034 49 316 1.7 4.3 0.00 0.00 0.00 43
20260503223055 49 336 1.7 2.6 0.00 0.00 0.00 42
20260503222035 50 0 1.7 3.5 0.00 0.00 0.00 42
20260503221035 50 348 1.7 2.6 0.00 0.00 0.00 43
20260503220035 50 21 1.7 2.6 0.00 0.00 0.00 42
20260503215035 51 307 2.6 3.5 0.00 0.00 0.00 41
20260503214055 51 342 2.6 3.5 0.00 0.00 0.00 41
20260503213035 50 335 2.6 4.3 0.00 0.00 0.00 43
20260503212055 50 339 3.5 4.3 0.00 0.00 0.00 42
20260503211035 50 260 2.6 3.5 0.00 0.00 0.00 42
20260503210035 50 343 2.6 4.3 0.00 0.00 0.00 43
20260503205054 50 325 2.6 4.3 0.00 0.00 0.00 42
20260503204034 51 295 4.3 6.1 0.00 0.00 0.00 42
20260503203035 49 310 3.5 6.1 0.00 0.00 0.00 44
20260503202035 50 255 1.7 2.6 0.00 0.00 0.00 45
20260503201135 51 286 2.6 6.1 0.00 0.00 0.00 43
20260503200034 49 32 2.6 4.3 0.00 0.00 0.00 46
20260503195035 49 315 3.5 6.1 0.00 0.00 0.00 44
20260503194035 50 352 2.6 4.3 0.00 0.00 0.00 43
20260503193034 48 318 4.3 6.1 0.00 0.00 0.00 46
20260503192035 48 320 4.3 6.1 0.00 0.00 0.00 44
20260503191034 49 339 3.5 6.1 0.00 0.00 0.00 42
20260503190035 49 309 4.3 6.1 0.00 0.00 0.00 40
20260503185034 50 325 4.3 8.7 0.00 0.00 0.00 40
20260503184035 50 345 3.5 4.3 0.00 0.00 0.00 41
20260503183035 50 276 2.6 4.3 0.00 0.00 0.00 40
20260503182114 49 318 4.3 6.1 0.00 0.00 0.00 41
20260503181055 50 304 3.5 6.1 0.00 0.00 0.00 39
20260503180034 50 304 5.2 7.0 0.00 0.00 0.00 39
20260503175034 49 318 5.2 7.8 0.00 0.00 0.00 39
20260503174054 50 312 5.2 8.7 0.00 0.00 0.00 38
20260503173053 50 336 5.2 6.1 0.00 0.00 0.00 39
20260503172033 50 333 5.2 7.0 0.00 0.00 0.00 38
20260503171053 50 347 5.2 7.8 0.00 0.00 0.00 39